Вернуться в каталог

NOAA 12 DEB

АктивенSSO
NORAD 37832·DEBRIS·🇺🇸 United States

Запущен May 14, 1991 с Vandenberg Space Force Base

Loading…

Ближайшие Пролёты (ближайшие 24 часа)

TLE

СвежийSource: Space-Track

Эпоха: Sep 14, 2026, 10:26 UTC

1 37832U 91032E   26257.43505373  .00004151  00000-0  84323-3 0  9994
2 37832  98.2678 318.1391 0007897 171.3599 199.5774 14.61649404785851

Отслеживайте NOAA 12 DEB в реальном времени с AllMySat

Download on the App Store